Theta_e
318 318 317 316 316 317 317 317 317 316 315 314 313 313 312 312 312 311 311 312 312 313 313 315 317 318 320 322 324 327 329 327 331 329 327 327 329 328 327 328 334 336 337
317 317 317 317 317 317 316 316 315 314 312 312 311 310 308 308 308 308 307 307 307 308 309 310 311 313 314 317 318 322 324 326 327 329 329 325 327 327 325 325 326 329 329
316 317 317 317 316 315 314 313 312 312 310 308 308 308 308 308 307 307 306 306 306 306 306 306 306 306 307 310 313 316 319 322 325 325 327 329 327 325 327 326 326 323 326
316 316 316 315 315 314 313 312 311 310 309 308 308 308 308 308 307 307 307 306 307 306 306 306 305 304 306 306 309 310 313 317 321 324 325 326 329 327 327 327 325 324 326
314 315 315 314 313 312 312 311 310 310 309 309 309 309 308 307 307 308 306 308 307 305 305 306 304 304 305 304 305 306 309 311 315 320 324 326 326 328 327 325 326 326 328
313 314 314 313 312 311 310 310 310 309 310 310 309 307 307 307 306 305 305 305 305 305 306 305 304 304 304 303 304 304 305 306 307 310 317 323 325 325 325 324 326 327 328
310 312 312 312 311 311 310 310 310 308 308 308 308 308 307 307 307 307 307 307 307 307 307 307 306 305 304 303 303 303 305 307 307 308 312 319 323 324 325 326 327 326 325
308 309 310 309 310 309 309 309 308 307 307 307 307 307 309 309 309 309 309 308 308 308 308 307 306 305 305 304 305 304 305 306 307 311 312 317 320 323 323 324 324 324 325
305 305 305 305 306 307 307 307 307 306 307 306 308 310 310 311 311 310 311 311 311 311 311 312 311 309 309 307 306 305 306 306 308 309 312 315 319 320 322 323 324 323 321
300 302 303 303 304 305 306 306 306 306 307 308 310 310 310 310 311 310 311 311 311 312 312 312 313 313 313 312 309 308 307 309 309 309 309 311 315 319 321 323 322 319 317
303 304 304 305 305 305 306 306 307 307 308 309 310 310 310 310 309 311 314 311 308 308 310 311 312 314 314 315 314 312 312 313 312 310 309 310 314 319 320 321 320 317 318
303 305 304 304 304 304 305 305 307 307 308 309 309 310 310 308 309 313 313 313 313 308 310 313 314 314 314 314 314 314 313 313 313 310 310 313 319 320 320 319 319 318 318
303 304 304 305 304 304 304 305 306 306 307 307 307 308 308 309 313 313 313 312 313 314 314 314 314 314 314 314 313 314 313 313 312 311 311 315 319 318 317 317 317 318 318
301 301 303 305 304 302 302 304 304 305 305 305 305 305 305 309 312 313 314 314 313 313 314 315 315 316 315 315 313 315 315 314 313 311 313 314 315 316 314 318 319 322 322
298 298 301 303 299 299 300 303 303 302 302 303 303 304 304 307 313 314 315 316 315 315 313 315 315 315 315 315 315 315 316 314 311 312 314 313 314 315 319 322 322 322 325
296 296 297 299 300 301 301 304 303 302 302 303 302 302 304 308 314 315 317 317 315 316 314 314 317 318 315 314 316 317 317 317 314 312 313 316 317 320 322 322 323 325 328
296 295 296 297 297 299 300 301 303 305 304 302 301 301 306 309 314 318 317 316 316 316 315 314 313 317 319 319 317 316 317 319 318 317 317 318 321 321 322 326 327 328 327
296 295 296 296 296 296 297 297 298 298 301 303 302 302 307 309 312 315 316 318 316 316 312 313 314 314 315 313 319 318 319 320 321 320 318 318 321 325 324 325 327 326 327
295 294 295 296 296 296 296 296 295 295 295 297 302 304 305 308 309 310 314 314 311 312 312 310 311 315 317 315 312 314 314 315 315 317 317 319 321 324 326 326 326 326 324
295 294 295 295 295 295 296 296 296 295 294 294 295 298 302 307 309 307 307 310 310 311 314 314 313 312 313 318 318 317 314 317 315 315 315 315 315 318 319 323 324 323 322
293 293 294 293 294 293 294 294 294 294 295 293 292 292 296 297 299 299 301 305 308 307 309 314 312 315 307 315 318 319 319 319 320 319 315 314 314 315 314 315 315 314 313
292 292 292 292 292 292 292 293 292 293 293 293 292 291 291 293 295 296 297 301 304 307 305 305 308 309 312 305 308 314 318 319 319 320 321 320 320 319 316 317 316 314 312
291 291 291 290 290 290 291 291 291 291 292 291 291 291 290 290 289 292 294 296 300 304 307 306 307 309 311 305 307 310 314 318 317 317 321 321 319 319 320 323 324 326 325
291 290 289 289 288 289 288 289 289 289 290 290 289 290 290 289 288 288 289 291 295 298 302 305 306 308 311 313 310 309 313 318 319 320 321 322 321 321 320 319 323 325 325
290 290 289 288 287 287 287 287 287 287 288 288 288 288 288 288 287 287 287 288 289 291 295 300 303 304 306 310 311 311 313 317 318 319 321 319 322 323 324 325 322 321 323
290 289 288 287 286 285 286 286 285 284 285 286 286 286 287 287 286 286 286 286 287 288 290 292 296 301 304 306 310 313 314 317 319 319 320 321 321 321 322 324 324 324 321
Wind_Speed
4 7 10 12 13 15 16 16 18 22 24 25 24 25 26 28 29 30 30 31 29 30 32 39 38 36 39 37 36 39 38 45 46 45 39 35 31 28 21 18 19 20 19
6 8 9 10 11 12 14 15 17 19 21 22 25 27 30 29 29 30 33 31 32 33 36 37 40 40 38 36 39 37 38 43 50 46 36 43 37 35 38 35 30 25 26
7 7 8 9 11 12 15 16 18 20 25 26 25 27 31 31 33 34 33 34 33 31 33 34 34 35 40 42 44 40 39 37 37 47 45 32 38 41 36 38 41 35 34
8 8 9 10 12 15 17 17 20 25 25 27 27 30 32 30 33 32 34 31 29 35 37 36 40 36 36 39 36 42 42 42 38 37 46 46 29 30 29 30 28 29 32
9 9 9 11 14 15 17 20 21 25 29 29 29 30 32 31 32 31 35 32 36 40 39 40 42 39 35 37 39 43 40 44 42 37 30 37 46 31 30 29 29 25 29
10 10 11 13 15 16 21 21 25 27 29 28 33 32 33 37 39 36 31 32 35 37 40 43 41 40 42 38 36 38 42 45 48 48 40 29 35 42 31 37 28 24 26
10 10 12 13 15 17 18 20 25 26 27 31 29 31 34 33 26 23 25 32 37 41 45 47 45 41 39 39 38 38 36 35 38 42 40 47 27 33 29 26 26 25 27
12 11 12 12 15 17 20 23 25 26 29 27 31 27 28 32 33 35 33 33 37 39 37 36 34 34 33 31 31 31 35 36 34 32 39 38 40 29 35 29 27 28 23
10 11 13 13 15 18 21 24 24 26 26 29 23 29 30 32 33 32 32 36 37 38 40 38 36 33 30 28 33 32 33 35 33 33 37 37 34 37 37 32 26 22 24
15 15 15 15 15 17 19 22 24 25 21 23 27 25 31 34 40 44 38 40 44 47 46 42 42 37 32 30 33 35 37 35 36 32 32 45 32 37 36 33 28 29 30
17 16 14 12 12 13 20 19 21 19 20 21 24 29 34 37 46 43 38 36 39 42 38 40 44 44 37 35 32 33 37 35 35 33 34 36 38 37 41 40 37 34 34
17 14 12 11 10 15 17 17 18 18 20 25 26 33 33 41 46 38 34 36 34 30 37 38 39 41 39 36 34 36 35 32 27 31 30 25 20 34 35 33 35 35 35
18 14 12 11 10 13 15 17 18 19 24 28 30 32 40 47 35 26 30 35 36 32 26 30 35 38 39 40 41 39 33 31 23 27 25 16 16 19 20 23 26 28 24
20 17 14 12 12 14 12 12 13 15 22 25 28 32 40 41 27 28 31 34 33 38 39 33 29 24 30 25 18 20 18 20 22 24 22 21 19 19 19 21 24 25 25
20 23 17 12 12 14 15 14 14 9 15 20 22 28 37 37 31 33 33 33 32 33 39 39 34 18 9 9 13 12 12 15 22 23 23 23 23 21 19 21 25 25 26
21 25 23 20 16 15 18 19 16 4 8 7 16 24 31 26 26 27 26 28 27 31 36 46 38 24 11 5 4 6 9 12 19 25 25 23 22 19 19 21 23 29 31
21 26 21 24 26 23 21 20 26 20 17 3 8 19 20 21 19 18 20 22 22 29 40 35 46 38 29 22 2 6 9 12 18 23 21 17 17 21 18 19 29 33 34
14 18 16 22 27 25 26 24 20 29 30 29 14 16 19 23 20 18 21 20 29 38 44 45 23 28 34 36 18 24 19 15 16 11 12 17 14 15 23 24 36 34 37
14 20 16 15 20 22 23 28 29 27 31 34 29 17 22 26 23 25 22 28 33 38 41 44 44 39 22 17 31 29 29 23 21 18 16 19 23 27 30 33 34 37 37
14 17 16 15 16 17 18 20 23 26 30 32 35 33 27 26 30 34 33 30 31 31 34 37 41 41 37 20 13 10 8 10 9 16 20 19 20 25 27 32 41 36 35
15 15 16 15 18 18 20 20 20 22 22 30 32 34 29 30 31 34 35 33 31 32 28 27 33 34 40 34 18 25 13 8 9 12 10 12 11 17 18 22 26 24 16
16 15 15 16 16 18 20 20 21 22 23 24 26 31 32 30 31 32 33 33 30 27 29 26 24 29 27 34 33 30 24 24 9 10 15 14 11 13 16 16 19 19 16
16 16 15 16 17 18 19 19 22 22 24 24 25 27 32 35 32 31 31 31 29 26 25 28 27 24 23 26 31 31 34 32 19 4 1 9 18 17 15 12 14 16 18
16 16 17 16 18 18 19 19 20 20 22 23 25 26 28 29 31 31 32 31 29 27 25 23 27 25 21 22 27 29 26 24 12 15 22 19 17 18 12 11 11 13 15
16 17 17 18 19 18 18 18 19 19 21 21 23 24 26 27 29 29 31 31 30 30 28 24 23 24 23 21 23 24 16 13 13 11 18 14 17 16 15 17 18 13 14
15 17 17 18 22 19 22 22 20 21 19 20 19 19 20 24 28 30 32 32 31 29 28 26 26 23 22 22 21 17 11 6 4 8 8 10 16 20 12 11 13 14 17
Wind_Direction
339 320 314 314 312 306 306 307 307 305 309 308 306 299 293 290 288 284 281 279 280 274 269 266 265 267 266 266 269 261 265 258 265 261 256 258 257 259 257 256 261 260 257
329 320 319 313 307 307 310 309 308 306 303 298 298 297 303 308 307 302 301 292 284 284 279 275 269 268 269 266 268 267 272 264 259 271 264 249 249 251 258 266 266 265 269
324 318 310 306 308 309 311 314 309 306 309 316 323 316 311 307 307 304 300 297 298 295 294 290 287 284 276 269 265 267 267 269 269 266 269 267 253 250 252 255 261 271 272
322 315 308 311 313 317 317 314 306 315 312 319 312 305 308 305 303 300 300 298 291 293 292 287 289 284 279 274 274 270 271 268 264 268 263 253 258 248 246 250 260 270 270
321 316 318 317 315 312 311 310 316 308 317 318 314 314 312 303 304 295 296 296 293 296 293 289 291 287 276 272 274 270 268 269 265 265 274 260 250 252 237 251 257 264 264
328 325 317 314 313 310 313 314 308 309 310 314 310 307 304 307 306 296 296 294 291 292 292 292 294 288 282 281 275 274 268 269 270 266 264 268 253 245 254 247 249 250 254
324 321 312 310 315 313 311 307 299 311 314 311 312 310 310 313 324 316 305 301 298 295 293 292 293 289 287 282 276 277 269 267 265 262 264 252 262 239 238 238 237 250 262
330 324 313 313 311 308 306 301 313 319 319 317 315 323 335 332 330 329 321 307 301 299 299 298 295 293 288 282 282 277 269 268 269 257 254 257 250 246 236 246 250 252 255
325 305 302 302 305 306 306 314 321 320 321 321 341 345 338 333 339 327 314 307 299 300 303 303 301 296 297 289 278 279 274 269 267 257 251 249 252 249 236 245 244 249 256
323 319 312 313 310 312 328 326 323 323 327 330 334 340 344 339 336 333 323 303 301 297 293 296 298 298 301 293 281 276 274 270 265 266 258 245 252 245 234 231 238 254 262
329 321 320 320 325 338 323 322 329 336 336 338 338 337 337 329 327 331 327 317 301 293 286 283 284 293 292 291 284 273 272 287 275 263 260 248 249 244 233 237 244 249 252
339 331 330 333 345 331 322 335 326 337 346 347 342 343 339 329 337 338 347 348 329 292 279 280 282 284 287 282 283 278 275 276 270 250 252 236 262 217 225 231 240 238 245
347 339 331 332 334 345 342 335 337 341 349 342 344 341 334 342 345 359 12 16 11 2 334 306 299 290 282 277 275 274 273 263 255 225 232 231 250 195 218 233 235 235 234
0 353 345 342 353 352 354 323 336 348 344 337 343 338 337 342 342 346 347 346 1 2 358 348 337 302 272 274 267 275 252 249 225 213 217 230 243 235 244 234 218 218 219
5 7 3 354 360 349 345 357 341 350 346 340 345 339 337 337 341 339 345 349 354 358 7 8 1 354 345 272 258 271 258 233 216 210 225 242 254 251 239 212 209 205 208
8 8 16 14 6 357 352 359 18 340 336 1 347 338 331 333 335 332 344 347 20 20 19 18 29 25 19 358 294 258 245 241 232 234 242 244 250 245 221 213 211 200 189
4 9 1 16 19 15 9 7 6 19 16 325 353 333 347 341 356 14 13 34 40 30 16 28 35 46 48 43 348 259 259 254 242 238 244 234 229 213 206 209 191 180 182
7 359 0 2 11 12 20 20 16 19 15 13 12 4 11 16 17 19 24 40 38 37 28 26 18 32 30 33 60 70 73 109 115 110 163 195 216 196 194 191 180 178 170
11 6 18 5 0 7 359 10 17 12 14 16 10 12 19 19 23 29 35 30 31 31 32 29 28 32 24 50 62 64 55 63 74 84 106 115 135 152 166 175 173 170 168
21 10 21 16 15 7 10 8 6 6 5 12 17 12 9 15 19 21 24 22 24 29 29 31 28 35 41 23 25 16 0 53 94 80 90 92 88 110 117 137 146 151 155
22 20 23 20 22 17 18 14 12 12 9 5 7 13 21 19 20 23 22 22 20 23 23 25 25 30 35 44 52 24 40 21 58 101 114 99 103 105 103 121 132 138 143
27 24 26 22 26 21 25 21 17 18 15 14 11 1 15 22 20 20 22 20 19 19 17 20 21 25 33 23 31 47 34 44 61 81 107 102 133 138 153 160 156 161 167
31 27 30 26 30 24 26 23 18 20 15 13 13 11 8 9 14 16 17 18 16 12 12 7 11 16 17 19 19 25 35 42 55 138 6 121 109 93 96 112 138 164 172
27 29 29 29 26 27 24 21 17 18 17 13 11 14 11 6 5 9 11 13 13 12 9 2 360 4 356 3 6 13 27 54 38 53 31 86 121 106 99 86 113 130 152
26 28 26 21 26 22 21 21 19 13 20 11 9 13 10 5 0 7 9 9 10 8 5 3 359 353 353 352 349 356 14 35 46 65 59 98 86 115 127 133 128 133 140
27 22 22 19 19 20 20 16 17 9 23 5 5 11 12 1 356 3 2 5 5 4 4 1 354 350 344 345 341 337 342 350 16 27 56 67 51 83 108 131 118 109 103